TimeEST,TemperatureF,Dew PointF,Humidity,Sea Level PressureIn,VisibilityMPH,Wind Direction,Wind SpeedMPH,Gust SpeedMPH,PrecipitationIn,Events,Conditions,WindDirDegrees,DateUTC
12:15 AM,19.4,3.2,49,30.14,10.0,West,5.8,-,N/A,,Clear,280,2013-02-02 05:15:00
12:55 AM,19.4,3.2,49,30.14,10.0,WNW,4.6,-,N/A,,Clear,290,2013-02-02 05:55:00
1:15 AM,19.4,3.2,49,30.15,10.0,West,5.8,-,N/A,,Clear,280,2013-02-02 06:15:00
1:35 AM,19.4,3.2,49,30.15,10.0,West,6.9,-,N/A,,Clear,280,2013-02-02 06:35:00
2:15 AM,17.6,3.2,53,30.17,10.0,West,4.6,-,N/A,,Clear,270,2013-02-02 07:15:00
2:35 AM,17.6,3.2,53,30.17,10.0,West,4.6,-,N/A,,Clear,270,2013-02-02 07:35:00
3:15 AM,17.6,3.2,53,30.18,10.0,WNW,3.5,-,N/A,,Clear,290,2013-02-02 08:15:00
3:35 AM,17.6,3.2,53,30.17,10.0,WNW,4.6,-,N/A,,Clear,290,2013-02-02 08:35:00
3:55 AM,17.6,3.2,53,30.18,10.0,WNW,5.8,-,N/A,,Clear,290,2013-02-02 08:55:00
4:15 AM,17.6,3.2,53,30.19,10.0,West,4.6,-,N/A,,Clear,270,2013-02-02 09:15:00
4:35 AM,17.6,3.2,53,30.19,10.0,Calm,Calm,-,N/A,,Clear,0,2013-02-02 09:35:00
4:55 AM,15.8,3.2,58,30.19,10.0,West,3.5,-,N/A,,Clear,260,2013-02-02 09:55:00
5:35 AM,15.8,3.2,58,30.19,10.0,Calm,Calm,-,N/A,,Clear,0,2013-02-02 10:35:00
5:55 AM,15.8,3.2,58,30.19,10.0,Calm,Calm,-,N/A,,Clear,0,2013-02-02 10:55:00
7:45 AM,15.8,5.0,62,30.22,10.0,West,3.5,-,N/A,,Clear,270,2013-02-02 12:45:00
8:45 AM,19.4,6.8,58,30.23,10.0,West,5.8,-,N/A,,Clear,270,2013-02-02 13:45:00
10:45 AM,23.0,3.2,43,30.20,10.0,West,3.5,-,N/A,,Clear,270,2013-02-02 15:45:00
11:45 AM,24.8,5.0,43,30.18,10.0,SW,6.9,-,N/A,,Clear,230,2013-02-02 16:45:00
12:45 PM,26.6,3.2,37,30.13,10.0,SW,6.9,20.7,N/A,,Clear,220,2013-02-02 17:45:00
1:45 PM,26.6,3.2,37,30.10,10.0,SW,11.5,-,N/A,,Clear,220,2013-02-02 18:45:00
2:45 PM,26.6,3.2,37,30.08,10.0,WSW,11.5,23.0,N/A,,Clear,240,2013-02-02 19:45:00
3:45 PM,26.6,3.2,37,30.06,10.0,SW,9.2,20.7,N/A,,Clear,230,2013-02-02 20:45:00
4:45 PM,24.8,3.2,40,30.05,10.0,SW,9.2,16.1,N/A,,Mostly Cloudy,230,2013-02-02 21:45:00
5:45 PM,24.8,3.2,40,30.05,10.0,WSW,5.8,17.3,N/A,,Mostly Cloudy,240,2013-02-02 22:45:00
6:45 PM,23.0,5.0,46,30.05,10.0,WSW,5.8,-,N/A,,Scattered Clouds,250,2013-02-02 23:45:00
7:45 PM,23.0,6.8,50,30.05,10.0,West,8.1,-,N/A,,Overcast,260,2013-02-03 00:45:00
8:45 PM,21.2,10.4,63,30.05,4.0,West,8.1,-,N/A,Snow,Light Snow,280,2013-02-03 01:45:00
9:15 PM,21.2,12.2,68,30.06,6.0,West,6.9,-,N/A,,Overcast,270,2013-02-03 02:15:00
9:35 PM,21.2,12.2,68,30.06,3.0,West,3.5,-,N/A,,Overcast,270,2013-02-03 02:35:00
9:55 PM,21.2,12.2,68,30.06,3.0,West,3.5,-,N/A,,Overcast,270,2013-02-03 02:55:00
10:15 PM,21.2,12.2,68,30.06,4.0,West,5.8,-,N/A,,Overcast,260,2013-02-03 03:15:00
10:35 PM,21.2,12.2,68,30.05,3.0,WSW,3.5,-,N/A,,Overcast,250,2013-02-03 03:35:00
10:55 PM,21.2,12.2,68,30.05,4.0,West,4.6,-,N/A,,Overcast,280,2013-02-03 03:55:00
11:15 PM,19.4,12.2,74,30.05,4.0,West,3.5,-,N/A,,Overcast,270,2013-02-03 04:15:00
11:35 PM,19.4,12.2,74,30.04,5.0,West,5.8,-,N/A,,Overcast,270,2013-02-03 04:35:00
11:55 PM,19.4,12.2,74,30.04,3.0,West,3.5,-,N/A,,Mostly Cloudy,270,2013-02-03 04:55:00